User: anonymous   Login
Location: Twentynine Palms Airport
(34.1316°N, 115.9458°W)
Time: 04:13:44
(UTC-08:00)
Language:

Oscar 19 - Orbit

View from above orbital plane
View from above orbital plane
View from above satellite
View from above satellite

Ground track
Ground track

The orbit data is extracted from the following two-line orbital elements,

1 20442U 90005G   17324.77283974  .00000034  00000-0  28586-4 0  9990
2 20442  98.5892 259.7783 0012671  48.9946 311.2332 14.32878497454048
Epoch (UTC): 20 November 2017 18:32:53
Eccentricity: 0.0012671
inclination: 98.5892°
perigee height: 773 km
apogee height: 791 km
right ascension of ascending node: 259.7783°
argument of perigee: 48.9946°
revolutions per day: 14.32878497
mean anomaly at epoch: 311.2332°
orbit number at epoch: 45404

The dashed part of the orbit path shows where the satellite is in the earth's shadow,  

DLR